Location: Unspecified
(0.0000°N, 0.0000°E)
Time: 04:06:00
(UTC+02:00)

Tiros 1 despin weight - All Passes

Search period start: 23 August 2017 00:00
Search period end: 02 September 2017 00:00
Orbit: 595 x 644 km, 48.2° (Epoch: 22 August)

Date Brightness Start Highest point End Pass type
(mag) Time Alt. Az. Time Alt. Az. Time Alt. Az.
23 Aug - 03:18:30 10° NNW 03:22:36 31° NE 03:26:45 10° ESE night (unlit)
23 Aug - 05:00:38 10° W 05:04:03 20° SW 05:07:30 10° S night (unlit)
23 Aug - 15:26:54 10° SSW 15:31:15 50° SE 15:35:31 10° NE daylight
23 Aug - 17:11:22 10° WNW 17:12:39 11° NW 17:13:57 10° NNW daylight
24 Aug - 03:34:52 10° NW 03:39:31 87° ENE 03:44:12 10° SE night (unlit)
24 Aug - 14:05:38 10° SE 14:06:39 11° SE 14:07:41 10° ESE daylight
24 Aug - 15:43:47 10° SW 15:48:08 54° NW 15:52:26 10° NNE daylight
25 Aug - 02:11:47 10° N 02:14:59 19° NE 02:18:14 10° E night (unlit)
25 Aug - 03:52:14 10° WNW 03:56:25 33° SW 04:00:40 10° SSE night (unlit)
25 Aug - 14:19:47 10° S 14:23:40 28° SE 14:27:30 10° ENE daylight
25 Aug - 16:01:50 10° W 16:05:03 19° NW 16:08:14 10° N daylight
26 Aug - 02:27:28 10° NNW 02:31:55 49° NE 02:36:26 10° SE night (unlit)
26 Aug - 04:11:15 10° WSW 04:13:25 13° SW 04:15:36 10° SSW night (unlit)
26 Aug - 14:36:05 10° SW 14:40:35 83° SE 14:45:00 10° NE daylight
27 Aug - 01:06:22 10° NE 01:07:21 11° NE 01:08:21 10° ENE night (unlit)
27 Aug - 02:44:17 10° NW 02:48:49 59° SW 02:53:25 10° SSE night (unlit)
27 Aug - 13:13:07 10° S 13:16:03 17° SE 13:18:57 10° E daylight
27 Aug - 14:53:26 10° WSW 14:57:28 33° NW 15:01:29 10° NNE daylight
28 Aug - 01:20:24 10° N 01:24:20 28° NE 01:28:18 10° ESE night (unlit)
28 Aug - 03:02:11 10° W 03:05:46 22° SW 03:09:23 10° S night (unlit)
28 Aug - 13:28:41 10° SSW 13:33:01 45° SE 13:37:15 10° NE daylight
28 Aug - 15:12:30 10° WNW 15:14:25 13° NW 15:16:21 10° NNW daylight
29 Aug - 01:36:39 10° NW 01:41:13 78° NE 01:45:52 10° SE night (unlit)
29 Aug - 13:45:28 10° SW 13:49:54 61° NW 13:54:17 10° NNE daylight
30 Aug - 00:13:49 10° N 00:16:43 16° NE 00:19:38 10° E night (unlit)
30 Aug - 01:53:54 10° WNW 01:58:07 37° SW 02:02:26 10° SSE night (unlit)
30 Aug - 12:21:37 10° S 12:25:25 26° SE 12:29:10 10° ENE daylight
30 Aug - 14:03:21 10° WSW 14:06:49 22° NW 14:10:14 10° N daylight
31 Aug - 00:29:19 10° NNW 00:33:38 43° NE 00:38:02 10° ESE night (unlit)
31 Aug - 02:12:37 10° W 02:15:07 14° SW 02:17:38 10° SSW night (unlit)
31 Aug - 12:37:48 10° SW 12:42:20 74° SE 12:46:47 10° NE daylight
01 Sep - 00:46:00 10° NW 00:50:32 66° SW 00:55:08 10° SSE night (unlit)
01 Sep - 11:15:03 10° SSE 11:17:47 16° SE 11:20:29 10° E daylight
01 Sep - 12:55:02 10° WSW 12:59:14 38° NW 13:03:22 10° NNE daylight
01 Sep - 23:22:19 10° N 23:26:02 25° NE 23:29:49 10° ESE night (unlit)
